| time (UTC) | temp F | wind direction | speed knots | gust knots | rain 1hr in | rain 24hr in | rain mn in | humidity % | barometer mb |
| 20260503010038 | 55 | 0 | 0.0 | 0.9 | 0.00 | 0.00 | 0.00 | 100 | 1014.4 |
| 20260503005703 | 54 | 223 | 0.9 | 0.9 | 0.00 | 0.43 | 0.00 | 95 | 1014.0 |
| 20260503005202 | 54 | 223 | 0.0 | 0.9 | 0.00 | 0.43 | 0.00 | 95 | 1014.0 |
| 20260503004703 | 54 | 269 | 0.9 | 0.9 | 0.00 | 0.43 | 0.00 | 95 | 1014.1 |
| 20260503004537 | 55 | 0 | 0.0 | 0.9 | 0.00 | 0.00 | 0.00 | 100 | 1014.5 |
| 20260503004202 | 54 | 178 | 0.0 | 0.9 | 0.00 | 0.43 | 0.00 | 95 | 1014.0 |
| 20260503003931 | 54 | 223 | 0.0 | 0.9 | 0.00 | 0.43 | 0.00 | 95 | 1014.1 |
| 20260503003202 | 54 | 178 | 0.0 | 0.9 | 0.00 | 0.43 | 0.00 | 95 | 1014.1 |
| 20260503003036 | 55 | 0 | 0.0 | 0.9 | 0.00 | 0.00 | 0.00 | 100 | 1014.5 |
| 20260503002703 | 54 | 269 | 0.0 | 0.9 | 0.00 | 0.43 | 0.00 | 95 | 1014.1 |
| 20260503002203 | 54 | 178 | 0.0 | 0.9 | 0.00 | 0.43 | 0.00 | 95 | 1014.2 |
| 20260503001704 | 54 | 178 | 0.0 | 0.9 | 0.00 | 0.43 | 0.00 | 95 | 1014.3 |
| 20260503001551 | 55 | 0 | 0.0 | 0.9 | 0.00 | 0.00 | 0.00 | 100 | 1014.7 |
| 20260503001202 | 54 | 206 | 0.0 | 0.9 | 0.00 | 0.43 | 0.00 | 95 | 1014.3 |
| 20260503001143 | 54 | 152 | 0.0 | 0.9 | 0.00 | 0.43 | 0.00 | 95 | 1014.3 |
| 20260503000203 | 54 | 206 | 0.0 | 0.9 | 0.00 | 0.43 | 0.00 | 95 | 1014.4 |
| 20260503000035 | 55 | 221 | 0.0 | 0.9 | 0.00 | 0.00 | 0.00 | 100 | 1014.7 |
| 20260502235919 | 54 | 206 | 0.0 | 0.9 | 0.00 | 0.43 | 0.00 | 95 | 1014.4 |
| 20260502235902 | 54 | 197 | 0.0 | 0.9 | 0.00 | 0.43 | 0.00 | 95 | 1014.4 |
| 20260502234703 | 54 | 269 | 0.0 | 0.9 | 0.00 | 0.43 | 0.00 | 95 | 1014.4 |
| 20260502234543 | 55 | 0 | 0.0 | 0.9 | 0.00 | 0.00 | 0.00 | 100 | 1014.9 |
| 20260502234202 | 54 | 206 | 0.0 | 0.9 | 0.00 | 0.43 | 0.00 | 95 | 1014.4 |
| 20260502233930 | 54 | 45 | 0.0 | 0.9 | 0.00 | 0.43 | 0.00 | 95 | 1014.5 |
| 20260502233202 | 54 | 206 | 0.0 | 0.9 | 0.00 | 0.43 | 0.00 | 95 | 1014.5 |
| 20260502233042 | 55 | 51 | 0.0 | 1.7 | 0.00 | 0.00 | 0.00 | 100 | 1014.9 |
| 20260502232703 | 54 | 178 | 0.9 | 0.9 | 0.00 | 0.43 | 0.00 | 95 | 1014.5 |
| 20260502232425 | 54 | 145 | 0.9 | 0.9 | 0.00 | 0.43 | 0.00 | 95 | 1014.5 |
| 20260502231704 | 54 | 223 | 0.9 | 0.9 | 0.00 | 0.43 | 0.00 | 95 | 1014.5 |
| 20260502231538 | 55 | 0 | 0.0 | 0.9 | 0.00 | 0.00 | 0.00 | 100 | 1014.8 |
| 20260502231202 | 54 | 206 | 0.0 | 0.9 | 0.00 | 0.43 | 0.00 | 95 | 1014.5 |
| 20260502230703 | 54 | 45 | 0.0 | 0.9 | 0.00 | 0.43 | 0.00 | 95 | 1014.6 |
| 20260502230202 | 54 | 206 | 0.0 | 0.9 | 0.00 | 0.43 | 0.00 | 95 | 1014.5 |
| 20260502230036 | 55 | 0 | 0.0 | 0.9 | 0.00 | 0.00 | 0.00 | 100 | 1015.0 |
| 20260502225703 | 54 | 206 | 0.0 | 1.7 | 0.00 | 0.43 | 0.00 | 95 | 1014.6 |
| 20260502225202 | 54 | 178 | 0.9 | 1.7 | 0.00 | 0.43 | 0.00 | 95 | 1014.5 |
| 20260502224704 | 54 | 152 | 0.0 | 1.7 | 0.00 | 0.43 | 0.00 | 95 | 1014.6 |
| 20260502224535 | 55 | 0 | 0.0 | 0.9 | 0.00 | 0.00 | 0.00 | 100 | 1015.0 |
| 20260502224201 | 54 | 178 | 0.0 | 0.9 | 0.00 | 0.43 | 0.00 | 95 | 1014.7 |
| 20260502223929 | 54 | 197 | 0.0 | 0.9 | 0.00 | 0.43 | 0.00 | 95 | 1014.7 |
| 20260502223202 | 54 | 223 | 0.0 | 1.7 | 0.00 | 0.43 | 0.00 | 95 | 1014.7 |
| 20260502223042 | 55 | 0 | 0.0 | 0.9 | 0.00 | 0.00 | 0.00 | 100 | 1015.1 |
| 20260502222703 | 54 | 178 | 0.9 | 1.7 | 0.00 | 0.43 | 0.00 | 95 | 1014.7 |
| 20260502222202 | 54 | 223 | 0.9 | 1.7 | 0.00 | 0.43 | 0.00 | 95 | 1014.7 |
| 20260502221926 | 55 | 213 | 0.9 | 1.7 | 0.00 | 0.43 | 0.00 | 95 | 1014.6 |
| 20260502221542 | 55 | 0 | 0.0 | 1.7 | 0.00 | 0.00 | 0.00 | 100 | 1015.1 |
| 20260502221203 | 54 | 314 | 0.9 | 1.7 | 0.00 | 0.43 | 0.00 | 95 | 1014.6 |
| 20260502220704 | 55 | 117 | 0.9 | 1.7 | 0.00 | 0.43 | 0.00 | 95 | 1014.6 |
| 20260502220202 | 55 | 145 | 0.9 | 3.5 | 0.00 | 0.43 | 0.00 | 95 | 1014.6 |
| 20260502220038 | 55 | 162 | 0.9 | 2.6 | 0.00 | 0.00 | 0.00 | 100 | 1015.1 |
| 20260502215705 | 55 | 161 | 1.7 | 3.5 | 0.00 | 0.43 | 0.43 | 95 | 1014.8 |
| 20260502215202 | 55 | 157 | 1.7 | 2.6 | 0.00 | 0.43 | 0.43 | 95 | 1014.7 |
| 20260502214704 | 55 | 178 | 1.7 | 3.5 | 0.00 | 0.43 | 0.43 | 95 | 1014.7 |
| 20260502214534 | 55 | 169 | 0.9 | 3.5 | 0.00 | 0.00 | 0.00 | 100 | 1015.2 |
| 20260502214202 | 55 | 148 | 1.7 | 3.5 | 0.00 | 0.43 | 0.43 | 95 | 1014.8 |
| 20260502213704 | 55 | 165 | 1.7 | 3.5 | 0.00 | 0.43 | 0.43 | 95 | 1014.9 |
| 20260502213202 | 55 | 171 | 1.7 | 3.5 | 0.00 | 0.43 | 0.43 | 95 | 1014.8 |
| 20260502213152 | 55 | 161 | 1.7 | 3.5 | 0.00 | 0.43 | 0.43 | 95 | 1014.8 |
| 20260502213039 | 55 | 153 | 1.7 | 1.7 | 0.00 | 0.00 | 0.00 | 100 | 1015.2 |
| 20260502212203 | 55 | 157 | 1.7 | 3.5 | 0.00 | 0.43 | 0.43 | 95 | 1014.8 |
| 20260502211921 | 55 | 171 | 1.7 | 2.6 | 0.00 | 0.43 | 0.43 | 95 | 1014.9 |
| 20260502211540 | 55 | 164 | 0.9 | 1.7 | 0.00 | 0.00 | 0.00 | 100 | 1015.3 |
| 20260502211425 | 55 | 161 | 0.9 | 0.9 | 0.00 | 0.43 | 0.43 | 95 | 1014.9 |
| 20260502210704 | 55 | 269 | 0.9 | 0.9 | 0.00 | 0.43 | 0.43 | 95 | 1014.9 |
| 20260502210203 | 55 | 152 | 0.9 | 0.9 | 0.00 | 0.43 | 0.43 | 95 | 1014.9 |
| 20260502210034 | 55 | 0 | 0.0 | 0.9 | 0.00 | 0.00 | 0.00 | 100 | 1015.3 |
| 20260502205704 | 55 | 165 | 0.0 | 1.7 | 0.00 | 0.43 | 0.43 | 95 | 1014.9 |
| 20260502205204 | 55 | 135 | 0.0 | 1.7 | 0.00 | 0.43 | 0.43 | 95 | 1014.8 |
| 20260502204922 | 55 | 178 | 0.0 | 0.9 | 0.00 | 0.43 | 0.43 | 95 | 1014.8 |
| 20260502204541 | 55 | 178 | 0.0 | 0.9 | 0.00 | 0.00 | 0.00 | 100 | 1015.3 |
| 20260502204204 | 55 | 178 | 0.9 | 1.7 | 0.01 | 0.43 | 0.43 | 95 | 1014.8 |
| 20260502203927 | 55 | 161 | 0.9 | 1.7 | 0.02 | 0.43 | 0.43 | 94 | 1014.7 |
| 20260502203203 | 55 | 89 | 0.0 | 0.9 | 0.02 | 0.43 | 0.43 | 94 | 1014.7 |
| 20260502203037 | 55 | 0 | 0.0 | 0.9 | 0.00 | 0.00 | 0.00 | 100 | 1015.1 |
| 20260502202703 | 55 | 135 | 0.0 | 0.9 | 0.02 | 0.43 | 0.43 | 94 | 1014.8 |
| 20260502202430 | 55 | 45 | 0.0 | 0.9 | 0.03 | 0.43 | 0.43 | 94 | 1014.7 |
| 20260502201704 | 55 | 178 | 0.0 | 0.9 | 0.04 | 0.43 | 0.43 | 94 | 1014.6 |
| 20260502201657 | 55 | 206 | 0.0 | 0.9 | 0.04 | 0.43 | 0.43 | 94 | 1014.6 |
| 20260502201545 | 55 | 0 | 0.0 | 0.9 | 0.00 | 0.00 | 0.00 | 100 | 1015.0 |
| 20260502200704 | 55 | 178 | 0.9 | 0.9 | 0.05 | 0.43 | 0.43 | 94 | 1014.5 |
| 20260502200434 | 55 | 45 | 0.0 | 0.9 | 0.06 | 0.43 | 0.43 | 94 | 1014.5 |
| 20260502200036 | 55 | 51 | 0.0 | 0.9 | 0.00 | 0.00 | 0.00 | 100 | 1014.9 |
| 20260502195704 | 55 | 89 | 0.0 | 0.9 | 0.08 | 0.35 | 0.43 | 94 | 1014.5 |
| 20260502195430 | 55 | 20 | 0.0 | 0.9 | 0.15 | 0.35 | 0.43 | 94 | 1014.6 |
| 20260502194703 | 55 | 178 | 0.0 | 0.9 | 0.19 | 0.35 | 0.42 | 94 | 1014.6 |
| 20260502194535 | 55 | 0 | 0.0 | 0.9 | 0.00 | 0.00 | 0.00 | 100 | 1015.0 |
| 20260502194424 | 55 | 331 | 0.0 | 0.9 | 0.21 | 0.35 | 0.42 | 94 | 1014.5 |
| 20260502193704 | 55 | 45 | 0.0 | 0.9 | 0.21 | 0.35 | 0.41 | 94 | 1014.5 |
| 20260502193204 | 55 | 178 | 0.9 | 1.7 | 0.21 | 0.35 | 0.41 | 94 | 1014.3 |
| 20260502193039 | 55 | 0 | 0.0 | 1.7 | 0.00 | 0.00 | 0.00 | 100 | 1014.9 |
| 20260502192704 | 55 | 314 | 0.9 | 1.7 | 0.20 | 0.35 | 0.40 | 94 | 1014.4 |
| 20260502192203 | 55 | 241 | 0.9 | 1.7 | 0.20 | 0.35 | 0.39 | 94 | 1014.3 |
| 20260502191704 | 56 | 223 | 0.9 | 2.6 | 0.19 | 0.35 | 0.39 | 94 | 1014.3 |
| 20260502191550 | 55 | 0 | 0.9 | 1.7 | 0.00 | 0.00 | 0.00 | 100 | 1014.7 |
| 20260502191203 | 56 | 306 | 0.9 | 2.6 | 0.19 | 0.35 | 0.39 | 94 | 1014.2 |
| 20260502190703 | 56 | 327 | 1.7 | 3.5 | 0.18 | 0.35 | 0.38 | 94 | 1014.3 |
| 20260502190204 | 56 | 312 | 2.6 | 3.5 | 0.17 | 0.35 | 0.35 | 94 | 1014.3 |
| 20260502190038 | 55 | 24 | 0.9 | 3.5 | 0.00 | 0.00 | 0.00 | 100 | 1014.7 |
| 20260502185703 | 56 | 45 | 1.7 | 3.5 | 0.15 | 0.20 | 0.33 | 94 | 1014.3 |
| 20260502185203 | 56 | 45 | 0.0 | 0.9 | 0.08 | 0.20 | 0.25 | 94 | 1014.4 |
| 20260502184703 | 56 | 45 | 0.9 | 0.9 | 0.04 | 0.20 | 0.23 | 94 | 1014.3 |
| 20260502184546 | 55 | 0 | 0.0 | 0.9 | 0.00 | 0.00 | 0.00 | 100 | 1014.7 |
| 20260502184423 | 56 | 178 | 0.0 | 1.7 | 0.02 | 0.20 | 0.20 | 94 | 1014.2 |
| 20260502183703 | 56 | 269 | 0.0 | 1.7 | 0.00 | 0.20 | 0.20 | 94 | 1014.1 |
| 20260502183203 | 56 | 59 | 0.9 | 1.7 | 0.01 | 0.20 | 0.20 | 94 | 1013.9 |
| 20260502183100 | 55 | 93 | 0.9 | 1.7 | 0.00 | 0.00 | 0.00 | 100 | 1014.4 |
| 20260502182703 | 56 | 39 | 0.9 | 1.7 | 0.01 | 0.20 | 0.20 | 94 | 1013.9 |
| 20260502182203 | 56 | 35 | 0.9 | 1.7 | 0.02 | 0.20 | 0.20 | 94 | 1014.0 |
| 20260502181704 | 56 | 76 | 0.9 | 2.6 | 0.02 | 0.20 | 0.20 | 94 | 1014.0 |
| 20260502181544 | 55 | 68 | 0.9 | 1.7 | 0.00 | 0.00 | 0.00 | 100 | 1014.5 |
| 20260502181204 | 56 | 89 | 0.9 | 2.6 | 0.02 | 0.20 | 0.20 | 94 | 1014.2 |
| 20260502180703 | 56 | 83 | 1.7 | 1.7 | 0.03 | 0.20 | 0.20 | 94 | 1014.2 |
| 20260502180424 | 56 | 61 | 1.7 | 1.7 | 0.05 | 0.20 | 0.20 | 94 | 1014.3 |
| 20260502170203 | 56 | 1 | 2.6 | 3.5 | 0.07 | 0.14 | 0.14 | 93 | 1014.5 |
| 20260502164204 | 57 | 1 | 2.6 | 3.5 | 0.04 | 0.08 | 0.09 | 92 | 1014.5 |
| 20260502163703 | 57 | 1 | 3.5 | 3.5 | 0.05 | 0.08 | 0.09 | 92 | 1014.2 |
| 20260502163202 | 57 | 1 | 3.5 | 3.5 | 0.06 | 0.08 | 0.09 | 92 | 1014.2 |
| 20260502163040 | 56 | 9 | 2.6 | 3.5 | 0.00 | 0.00 | 0.00 | 100 | 1014.7 |
| 20260502162704 | 57 | 1 | 2.6 | 3.5 | 0.07 | 0.08 | 0.09 | 92 | 1014.2 |
| 20260502162134 | 57 | 1 | 2.6 | 3.5 | 0.08 | 0.08 | 0.08 | 92 | 1014.3 |
| 20260502161631 | 57 | 1 | 2.6 | 3.5 | 0.08 | 0.08 | 0.08 | 92 | 1014.3 |
| 20260502161535 | 57 | 9 | 2.6 | 3.5 | 0.00 | 0.00 | 0.00 | 100 | 1014.8 |
| 20260502161132 | 57 | 1 | 2.6 | 3.5 | 0.08 | 0.08 | 0.08 | 92 | 1014.2 |
| 20260502160849 | 57 | 1 | 2.6 | 3.5 | 0.08 | 0.08 | 0.08 | 92 | 1014.2 |
| 20260502160131 | 57 | 1 | 2.6 | 3.5 | 0.08 | 0.08 | 0.08 | 92 | 1014.2 |
| 20260502152131 | 58 | 89 | 1.7 | 3.5 | 0.00 | 0.00 | 0.00 | 88 | 1014.7 |
| 20260502151629 | 58 | 269 | 0.9 | 4.3 | 0.00 | 0.00 | 0.00 | 87 | 1014.8 |
| 20260502151541 | 58 | 319 | 0.9 | 4.3 | 0.00 | 0.00 | 0.00 | 100 | 1015.2 |
| 20260502151130 | 59 | 1 | 2.6 | 6.1 | 0.00 | 0.00 | 0.00 | 87 | 1014.6 |
| 20260502150629 | 59 | 1 | 1.7 | 6.1 | 0.00 | 0.00 | 0.00 | 86 | 1014.5 |
| 20260502150130 | 60 | 314 | 1.7 | 5.2 | 0.00 | 0.00 | 0.00 | 85 | 1014.6 |
| 20260502140129 | 60 | 42 | 1.7 | 5.2 | 0.00 | 0.00 | 0.00 | 81 | 1015.0 |
| 20260502130128 | 65 | 230 | 1.7 | 2.6 | 0.00 | 0.00 | 0.00 | 66 | 1014.9 |
| 20260502123626 | 64 | 206 | 0.9 | 1.7 | 0.00 | 0.00 | 0.00 | 72 | 1015.0 |
| 20260502123127 | 64 | 206 | 1.7 | 1.7 | 0.00 | 0.00 | 0.00 | 73 | 1015.0 |
| 20260502123038 | 64 | 309 | 0.9 | 0.9 | 0.00 | 0.00 | 0.00 | 73 | 1015.4 |
| 20260502122626 | 64 | 254 | 0.9 | 2.6 | 0.00 | 0.00 | 0.00 | 72 | 1015.1 |
| 20260502122127 | 64 | 206 | 1.7 | 3.5 | 0.00 | 0.00 | 0.00 | 73 | 1015.0 |
| 20260502121626 | 64 | 223 | 0.9 | 3.5 | 0.00 | 0.00 | 0.00 | 75 | 1015.2 |
| 20260502121547 | 64 | 0.9 | 0.9 | 0.00 | 0.00 | 0.00 | 73 | 1015.7 | |
| 20260502121126 | 64 | 223 | 0.9 | 2.6 | 0.00 | 0.00 | 0.00 | 75 | 1015.3 |
| 20260502120626 | 64 | 223 | 0.9 | 1.7 | 0.00 | 0.00 | 0.00 | 75 | 1015.3 |
| 20260502120126 | 64 | 28 | 0.9 | 1.7 | 0.00 | 0.00 | 0.00 | 71 | 1015.4 |
| 20260502115625 | 65 | 213 | 0.9 | 2.6 | 0.00 | 0.00 | 0.00 | 72 | 1015.4 |
| 20260502115126 | 65 | 178 | 0.9 | 2.6 | 0.00 | 0.00 | 0.00 | 71 | 1015.4 |
| 20260502114625 | 65 | 206 | 0.9 | 2.6 | 0.00 | 0.00 | 0.00 | 70 | 1015.4 |
| 20260502114541 | 64 | 234 | 0.9 | 1.7 | 0.00 | 0.00 | 0.00 | 68 | 1015.8 |
| 20260502114126 | 64 | 223 | 0.9 | 2.6 | 0.00 | 0.00 | 0.00 | 69 | 1015.4 |
| 20260502113625 | 64 | 206 | 0.9 | 2.6 | 0.00 | 0.00 | 0.00 | 69 | 1015.4 |
| 20260502113126 | 64 | 152 | 0.9 | 2.6 | 0.00 | 0.00 | 0.00 | 69 | 1015.4 |
| 20260502113039 | 64 | 9 | 0.9 | 1.7 | 0.00 | 0.00 | 0.00 | 68 | 1015.9 |
| 20260502112626 | 64 | 223 | 0.9 | 1.7 | 0.00 | 0.00 | 0.00 | 68 | 1015.5 |
| 20260502112125 | 64 | 206 | 0.9 | 2.6 | 0.00 | 0.00 | 0.00 | 68 | 1015.5 |
| 20260502111624 | 64 | 286 | 1.7 | 2.6 | 0.00 | 0.00 | 0.00 | 69 | 1015.6 |
| 20260502111536 | 63 | 342 | 0.9 | 2.6 | 0.00 | 0.00 | 0.00 | 69 | 1015.9 |
| 20260502111125 | 64 | 206 | 1.7 | 2.6 | 0.00 | 0.00 | 0.00 | 68 | 1015.6 |
| 20260502110624 | 64 | 213 | 0.9 | 2.6 | 0.00 | 0.00 | 0.00 | 70 | 1015.5 |
| 20260502110126 | 64 | 210 | 1.7 | 2.6 | 0.00 | 0.00 | 0.00 | 71 | 1015.5 |
| 20260502110040 | 63 | 239 | 0.9 | 2.6 | 0.00 | 0.00 | 0.00 | 72 | 1015.9 |
| 20260502105624 | 64 | 16 | 1.7 | 3.5 | 0.00 | 0.00 | 0.00 | 73 | 1015.5 |
| 20260502105125 | 64 | 1 | 0.9 | 4.3 | 0.00 | 0.00 | 0.00 | 71 | 1015.6 |
| 20260502104624 | 63 | 8 | 2.6 | 4.3 | 0.00 | 0.00 | 0.00 | 72 | 1015.6 |
| 20260502104540 | 62 | 51 | 0.9 | 1.7 | 0.00 | 0.00 | 0.00 | 75 | 1016.0 |
| 20260502104125 | 63 | 197 | 1.7 | 2.6 | 0.00 | 0.00 | 0.00 | 75 | 1015.7 |
| 20260502103623 | 62 | 1 | 0.9 | 2.6 | 0.00 | 0.00 | 0.00 | 76 | 1015.8 |
| 20260502103124 | 62 | 1 | 1.7 | 2.6 | 0.00 | 0.00 | 0.00 | 75 | 1015.8 |
| 20260502103043 | 62 | 325 | 1.7 | 1.7 | 0.00 | 0.00 | 0.00 | 75 | 1016.3 |
| 20260502102623 | 62 | 206 | 0.9 | 1.7 | 0.00 | 0.00 | 0.00 | 75 | 1015.9 |
| 20260502102126 | 62 | 314 | 0.9 | 3.5 | 0.00 | 0.00 | 0.00 | 76 | 1015.9 |
| 20260502101837 | 62 | 8 | 0.9 | 2.6 | 0.00 | 0.00 | 0.00 | 76 | 1016.0 |
| 20260502101623 | 62 | 45 | 0.0 | 3.5 | 0.00 | 0.00 | 0.00 | 76 | 1016.0 |
| 20260502101545 | 62 | 0 | 0.9 | 1.7 | 0.00 | 0.00 | 0.00 | 78 | 1016.4 |
| 20260502100845 | 62 | 1 | 0.9 | 2.6 | 0.00 | 0.00 | 0.00 | 76 | 1016.0 |
| 20260502100124 | 62 | 331 | 1.7 | 3.5 | 0.00 | 0.00 | 0.00 | 78 | 1016.0 |
| 20260502091123 | 58 | 16 | 0.9 | 2.6 | 0.00 | 0.00 | 0.00 | 87 | 1016.3 |
| 20260502090622 | 57 | 45 | 0.9 | 2.6 | 0.00 | 0.00 | 0.00 | 89 | 1016.3 |
| 20260502090123 | 57 | 178 | 0.9 | 1.7 | 0.00 | 0.00 | 0.00 | 91 | 1016.3 |
| 20260502071120 | 53 | 45 | 0.9 | 1.7 | 0.00 | 0.00 | 0.00 | 92 | 1016.4 |
| 20260502070619 | 52 | 178 | 0.9 | 1.7 | 0.00 | 0.00 | 0.00 | 92 | 1016.3 |
| 20260502070121 | 52 | 117 | 0.9 | 1.7 | 0.00 | 0.00 | 0.00 | 92 | 1016.4 |
| 20260502070106 | 52 | 109 | 0.9 | 1.7 | 0.00 | 0.00 | 0.00 | 92 | 1016.4 |
| 20260502070040 | 52 | 137 | 0.9 | 0.9 | 0.00 | 0.00 | 0.00 | 100 | 1016.8 |
| 20260502065119 | 52 | 45 | 0.9 | 1.7 | 0.00 | 0.00 | 0.00 | 92 | 1016.4 |
| 20260502065106 | 52 | 178 | 0.0 | 1.7 | 0.00 | 0.00 | 0.00 | 92 | 1016.3 |
| 20260502064540 | 52 | 162 | 0.9 | 1.7 | 0.00 | 0.00 | 0.00 | 100 | 1016.8 |
| 20260502064118 | 52 | 152 | 0.9 | 1.7 | 0.00 | 0.00 | 0.00 | 92 | 1016.3 |
| 20260502063618 | 52 | 63 | 1.7 | 1.7 | 0.00 | 0.00 | 0.00 | 93 | 1016.3 |
| 20260502063119 | 52 | 45 | 0.9 | 1.7 | 0.00 | 0.00 | 0.00 | 93 | 1016.3 |
| 20260502063036 | 51 | 61 | 0.9 | 1.7 | 0.00 | 0.00 | 0.00 | 100 | 1016.8 |
| 20260502062618 | 52 | 28 | 0.9 | 1.7 | 0.00 | 0.00 | 0.00 | 93 | 1016.4 |
| 20260502062335 | 52 | 79 | 0.9 | 1.7 | 0.00 | 0.00 | 0.00 | 93 | 1016.4 |
| 20260502061618 | 51 | 45 | 0.9 | 1.7 | 0.00 | 0.00 | 0.00 | 93 | 1016.5 |
| 20260502061543 | 51 | 9 | 0.0 | 0.9 | 0.00 | 0.00 | 0.00 | 100 | 1016.8 |
| 20260502061118 | 51 | 314 | 0.9 | 0.9 | 0.00 | 0.00 | 0.00 | 93 | 1016.4 |
| 20260502060617 | 51 | 45 | 0.9 | 0.9 | 0.00 | 0.00 | 0.00 | 92 | 1016.4 |
| 20260502060118 | 51 | 1 | 0.0 | 0.9 | 0.00 | 0.00 | 0.00 | 92 | 1016.3 |
| 20260502060039 | 51 | 0 | 0.9 | 0.9 | 0.00 | 0.00 | 0.00 | 100 | 1016.7 |
| 20260502055617 | 51 | 269 | 0.0 | 0.9 | 0.00 | 0.00 | 0.00 | 92 | 1016.3 |
| 20260502055117 | 51 | 206 | 0.0 | 0.9 | 0.00 | 0.00 | 0.00 | 92 | 1016.2 |
| 20260502054617 | 51 | 161 | 0.0 | 0.9 | 0.00 | 0.00 | 0.00 | 92 | 1016.2 |
| 20260502054543 | 51 | 61 | 0.0 | 1.7 | 0.00 | 0.00 | 0.00 | 100 | 1016.6 |
| 20260502054341 | 51 | 89 | 0.9 | 0.9 | 0.00 | 0.00 | 0.00 | 92 | 1016.2 |
| 20260502053836 | 51 | 290 | 0.0 | 1.7 | 0.00 | 0.00 | 0.00 | 92 | 1016.3 |
| 20260502053116 | 51 | 152 | 0.9 | 1.7 | 0.00 | 0.00 | 0.00 | 91 | 1016.2 |
| 20260502053038 | 51 | 0 | 0.0 | 0.9 | 0.00 | 0.00 | 0.00 | 100 | 1016.6 |
| 20260502052617 | 51 | 152 | 0.0 | 0.9 | 0.00 | 0.00 | 0.00 | 91 | 1016.2 |
| 20260502052116 | 51 | 45 | 0.0 | 0.9 | 0.00 | 0.00 | 0.00 | 91 | 1016.2 |
| 20260502051840 | 51 | 1 | 0.0 | 0.9 | 0.00 | 0.00 | 0.00 | 91 | 1016.1 |
| 20260502051554 | 51 | 223 | 0.0 | 1.7 | 0.00 | 0.00 | 0.00 | 91 | 1016.1 |
| 20260502051544 | 51 | 0 | 0.0 | 0.9 | 0.00 | 0.00 | 0.00 | 100 | 1016.6 |
| 20260502050621 | 52 | 223 | 0.9 | 1.7 | 0.00 | 0.00 | 0.00 | 91 | 1016.1 |
| 20260502050116 | 52 | 250 | 0.9 | 0.9 | 0.00 | 0.00 | 0.00 | 91 | 1016.1 |
| 20260502050038 | 52 | 232 | 0.9 | 1.7 | 0.00 | 0.00 | 0.00 | 100 | 1016.4 |
| 20260502045616 | 52 | 45 | 0.9 | 1.7 | 0.00 | 0.00 | 0.00 | 92 | 1015.9 |
| 20260502045342 | 52 | 178 | 0.0 | 1.7 | 0.00 | 0.00 | 0.00 | 92 | 1015.9 |
| 20260502044616 | 52 | 161 | 0.9 | 1.7 | 0.00 | 0.00 | 0.00 | 91 | 1015.8 |
| 20260502044540 | 51 | 162 | 0.9 | 0.9 | 0.00 | 0.00 | 0.00 | 100 | 1016.3 |
| 20260502044116 | 52 | 178 | 0.0 | 0.9 | 0.00 | 0.00 | 0.00 | 91 | 1015.9 |
| 20260502043616 | 52 | 45 | 0.0 | 0.9 | 0.00 | 0.00 | 0.00 | 91 | 1015.8 |
| 20260502043115 | 52 | 135 | 0.0 | 0.9 | 0.00 | 0.00 | 0.00 | 91 | 1015.8 |
| 20260502043039 | 51 | 0 | 0.0 | 0.9 | 0.00 | 0.00 | 0.00 | 100 | 1016.2 |
| 20260502042616 | 52 | 135 | 0.0 | 1.7 | 0.00 | 0.00 | 0.00 | 91 | 1015.8 |
| 20260502042116 | 52 | 178 | 0.0 | 1.7 | 0.00 | 0.00 | 0.00 | 91 | 1015.9 |
| 20260502041615 | 52 | 45 | 0.9 | 0.9 | 0.00 | 0.00 | 0.00 | 91 | 1015.9 |
| 20260502041602 | 51 | 93 | 0.0 | 0.9 | 0.00 | 0.00 | 0.00 | 100 | 1016.4 |
| 20260502041116 | 52 | 45 | 0.0 | 0.9 | 0.00 | 0.00 | 0.00 | 91 | 1015.9 |
| 20260502040615 | 52 | 178 | 0.9 | 0.9 | 0.00 | 0.00 | 0.00 | 91 | 1016.0 |
| 20260502040604 | 52 | 45 | 0.0 | 0.9 | 0.00 | 0.00 | 0.00 | 91 | 1015.9 |
| 20260502040043 | 52 | 0 | 0.0 | 0.9 | 0.00 | 0.00 | 0.00 | 100 | 1016.5 |
| 20260502035615 | 52 | 223 | 0.0 | 1.7 | 0.00 | 0.00 | 0.00 | 91 | 1016.1 |
| 20260502035115 | 52 | 142 | 0.9 | 1.7 | 0.00 | 0.00 | 0.00 | 90 | 1016.0 |
| 20260502034614 | 52 | 152 | 0.0 | 0.9 | 0.00 | 0.00 | 0.00 | 90 | 1016.1 |
| 20260502034536 | 52 | 51 | 0.0 | 0.9 | 0.00 | 0.00 | 0.00 | 100 | 1016.5 |
| 20260502034114 | 52 | 45 | 0.0 | 0.9 | 0.00 | 0.00 | 0.00 | 90 | 1016.1 |
| 20260502033615 | 52 | 20 | 0.0 | 0.9 | 0.00 | 0.00 | 0.00 | 90 | 1016.1 |
| 20260502033115 | 52 | 28 | 0.0 | 1.7 | 0.00 | 0.00 | 0.00 | 90 | 1016.2 |
| 20260502033050 | 52 | 265 | 0.9 | 0.9 | 0.00 | 0.00 | 0.00 | 100 | 1016.7 |
| 20260502032615 | 52 | 178 | 0.9 | 1.7 | 0.00 | 0.00 | 0.00 | 90 | 1016.3 |
| 20260502032333 | 53 | 45 | 0.0 | 0.9 | 0.00 | 0.00 | 0.00 | 90 | 1016.2 |
| 20260502031614 | 53 | 109 | 0.9 | 2.6 | 0.00 | 0.00 | 0.00 | 91 | 1016.1 |
| 20260502031539 | 52 | 137 | 0.0 | 0.9 | 0.00 | 0.00 | 0.00 | 100 | 1016.6 |
| 20260502031114 | 53 | 157 | 0.9 | 2.6 | 0.00 | 0.00 | 0.00 | 90 | 1016.1 |
| 20260502030614 | 53 | 135 | 0.0 | 0.9 | 0.00 | 0.00 | 0.00 | 90 | 1016.2 |
| 20260502030335 | 53 | 178 | 0.0 | 0.9 | 0.00 | 0.00 | 0.00 | 90 | 1016.3 |
| 20260502030040 | 52 | 0 | 0.0 | 0.9 | 0.00 | 0.00 | 0.00 | 100 | 1016.7 |
| 20260502025613 | 53 | 145 | 0.0 | 0.9 | 0.00 | 0.00 | 0.00 | 90 | 1016.4 |
| 20260502025114 | 53 | 109 | 0.9 | 0.9 | 0.00 | 0.00 | 0.00 | 89 | 1016.4 |
| 20260502024841 | 53 | 89 | 0.0 | 0.9 | 0.00 | 0.00 | 0.00 | 89 | 1016.5 |
| 20260502024537 | 53 | 0 | 0.0 | 0.9 | 0.00 | 0.00 | 0.00 | 100 | 1017.0 |
| 20260502024113 | 53 | 45 | 0.0 | 0.9 | 0.00 | 0.00 | 0.00 | 89 | 1016.5 |
| 20260502023613 | 53 | 45 | 0.0 | 0.9 | 0.00 | 0.00 | 0.00 | 89 | 1016.4 |
| 20260502023113 | 53 | 1 | 0.0 | 0.9 | 0.00 | 0.00 | 0.00 | 90 | 1016.4 |
| 20260502023035 | 53 | 0 | 0.0 | 0.0 | 0.00 | 0.00 | 0.00 | 100 | 1016.9 |
| 20260502022613 | 53 | 241 | 0.0 | 2.6 | 0.00 | 0.00 | 0.00 | 90 | 1016.5 |
| 20260502022113 | 53 | 63 | 0.9 | 2.6 | 0.00 | 0.00 | 0.00 | 90 | 1016.5 |
| 20260502021832 | 53 | 157 | 1.7 | 1.7 | 0.00 | 0.00 | 0.00 | 89 | 1016.6 |
| 20260502021546 | 53 | 137 | 0.9 | 0.9 | 0.00 | 0.00 | 0.00 | 100 | 1017.1 |
| 20260502021112 | 53 | 152 | 0.9 | 1.7 | 0.00 | 0.00 | 0.00 | 89 | 1016.6 |
| 20260502020612 | 53 | 178 | 0.0 | 1.7 | 0.00 | 0.00 | 0.00 | 89 | 1016.7 |
| 20260502020112 | 54 | 117 | 0.0 | 0.9 | 0.00 | 0.00 | 0.00 | 89 | 1016.7 |
| 20260502020040 | 53 | 0.0 | 0.0 | 0.00 | 0.00 | 0.00 | 100 | 1017.2 | |
| 20260502015832 | 54 | 135 | 0.0 | 0.9 | 0.00 | 0.00 | 0.00 | 89 | 1016.7 |
| 20260502015112 | 54 | 45 | 0.0 | 0.9 | 0.00 | 0.00 | 0.00 | 89 | 1016.8 |
| 20260502014611 | 54 | 152 | 0.0 | 0.9 | 0.00 | 0.00 | 0.00 | 89 | 1016.7 |
| 20260502014539 | 53 | 0.0 | 0.0 | 0.00 | 0.00 | 0.00 | 100 | 1017.3 | |
| 20260502014112 | 54 | 269 | 0.0 | 1.7 | 0.00 | 0.00 | 0.00 | 89 | 1016.8 |
| 20260502013612 | 54 | 223 | 0.0 | 1.7 | 0.00 | 0.00 | 0.00 | 89 | 1016.9 |
| 20260502013112 | 54 | 135 | 0.0 | 0.9 | 0.00 | 0.00 | 0.00 | 88 | 1017.0 |
| 20260502013036 | 0 | 0.0 | 0.0 | 0.00 | 0.00 | 0.00 | 100 | 1017.4 | |
| 20260502012611 | 54 | 135 | 0.9 | 0.9 | 0.00 | 0.00 | 0.00 | 88 | 1016.9 |
| 20260502012112 | 54 | 152 | 0.0 | 0.9 | 0.00 | 0.00 | 0.00 | 87 | 1017.0 |
| 20260502011611 | 55 | 89 | 0.9 | 0.9 | 0.00 | 0.00 | 0.00 | 87 | 1017.1 |
| 20260502011536 | 0 | 0.0 | 0.0 | 0.00 | 0.00 | 0.00 | 1017.5 | ||
| 20260502011111 | 55 | 206 | 0.0 | 0.9 | 0.00 | 0.00 | 0.00 | 87 | 1017.1 |
| 20260502010611 | 55 | 223 | 0.9 | 1.7 | 0.00 | 0.00 | 0.00 | 87 | 1017.1 |